Regional Weather Roundup
Issued by NWS Newport/Morehead, NC

Current Version | Previous Version | Graphics & Text | Print | Product List | Glossary On
Versions: 1 2 3 4 5 6 7 8 9 10 11 12 13 14 15 16 17 18 19 20 21 22 23 24 25 26 27 28 29 30 31 32 33 34 35 36 37 38 39 40 41 42 43 44 45 46 47 48 49 50
000 ASUS42 KMHX 270725 RWRMHX WEATHER ROUNDUP FOR EASTERN NORTH CAROLINA NATIONAL WEATHER SERVICE NEWPORT/MOREHEAD CITY NC 200 AM EST MON FEB 27 2017 NOTE: "FAIR" INDICATES FEW OR NO CLOUDS BELOW 12,000 FEET WITH NO SIGNIFICANT WEATHER AND/OR OBSTRUCTIONS TO VISIBILITY NCZ015>017-031-032-045>047-102-103-270800- NORTH COAST CITY SKY/WX TMP DP RH WIND PRES REMARKS EDENTON PTCLDY 36 34 91 CALM 30.37S ELIZABETH CITY CLOUDY 42 39 89 SE5 30.37R KITTY HAWK NOT AVBL MANTEO CLEAR 37 36 96 CALM 30.38R $$ NCZ045>047-081-094-103-104-270800- CENTRAL COAST CITY SKY/WX TMP DP RH WIND PRES REMARKS FRISCO CLEAR 38 33 82 CALM 30.37R $$ NCZ095-097-098-100-101-270800- SOUTHERN COAST CITY SKY/WX TMP DP RH WIND PRES REMARKS BEAUFORT CLEAR 39 33 79 CALM 30.36S CEDAR ISLAND NOT AVBL JACKSONVILLE CLEAR 36 34 92 NW3 30.35F PINEY ISLAND SUNNY N/A N/A N/A CALM 30.36R WILMINGTON CLEAR 35 34 96 CALM 30.35S $$ NCZ011>013-027>030-043-044-078>080-089-090>093-098-270800- COASTAL PLAIN CITY SKY/WX TMP DP RH WIND PRES REMARKS AHOSKIE N/A 30 27 89 CALM 30.36S CLINTON CLEAR 35 33 92 CALM 30.35S ELIZABETHTOWN CLEAR 36 31 83 CALM 30.33F GOLDSBORO CLEAR 35 28 75 E3 30.33S GREENVILLE CLEAR 34 32 93 CALM 30.36S HAVELOCK NOT AVBL KENANSVILLE CLEAR 28 27 93 CALM 30.35F KINSTON CLEAR 32 28 86 CALM 30.36F NEW BERN CLEAR 34 31 88 CALM 30.38R RICHLANDS CLEAR 30 27 88 CALM 30.36F ROCKY MOUNT CLEAR 31 29 92 CALM 30.35R WASHINGTON CLEAR 34 29 83 CALM 30.37S WHITEVILLE CLEAR 36 33 88 CALM 30.32F $$ AMZ130-135-150-152-154-156-158-170-250-252-270-ANZ085-086-088-633-658-670-270800- MARINE OBSERVATIONS STATION/POSITION TIME TEMP WIND PRES WAVE SWELL AIR SEA DIR/SP/G HT/PER HT/PER (UTC) (F) (DEG/KT/KT) (MB) (FT/S) (FT/S) CHESAPEAKE LIGHT NOT AVBL 64 E VA BEACH 0650 46 50 120/ 4/ 4 1028.3 3/ 9 3/ 9 DUCK 0700 47 49 120/ 5/ 5 1027.9 2 E DUCK 0700 49 N/A 3/ 9 OREGON INLET 0700 46 56 90/ 3/ 4 1028.4 13E OREGON INLT NOT AVBL HATTERAS CG 0700 51 61 CALM 1028.1 DIAMOND BUOY 0650 56 71 320/ 6/ 8 1028.1 4/ 9 3/ 9 CAPE LOOKOUT 0700 53 20/ 7/ 8 1027.7 BEAUFORT LAB 0700 47 61 20/ 3/ 4 1027.2 30 SE NEW RVR IN 0708 56 10/ 2/ 6 1028.0 30 SE NEW RVR IN 0713 65 N/A 3/ 8 2/11 27 SE WRIGHTSVLE 0708 56 61 320/ 4/ 6 1026.3 5 SE WRIGHTSVLE 0708 53 58 340/ 4/ 6 1027.5 225 S CAPE HAT 0650 64 71 20/ 10/ 12 1026.5 5/ 6 5/ 6 41 SE CHARLESTON 0650 61 69 70/ 8/ 12 1026.7 3/ 9 3/ 9 $$

USA.gov is the U.S. government's official web portal to all federal, state and local government web resources and services.